< < Back
Terminal Aerodrome Forecast


Current Version              Previous Versions:   1  2  3  4  5  6  7  8  9  

Terminal Aerodrome Forecast

972
FTUS44 KBMX 221700
TAFTCL
TAF
KTCL 221726Z 2218/2318 02008KT P6SM SKC
     FM230000 00000KT P6SM SKC=

Latest METAR

855
SAUS70 KWBC 230958
MTRTCL
METAR KTCL 230953Z AUTO 00000KT 10SM CLR 06/04 A3015 RMK AO2 SLP207
T00610044


USA.gov is the U.S. government's official web portal to all federal, state and local government web resources and services.